GW4477 Weather Reports


Display with metric or nautical units.
time (UTC)temp
F
wind
direction
speed
MPH
gust
MPH
rain 1hr
in
rain 24hr
in
rain mn
in
humidity
%
barometer
mb
20260509074504 53 232 3.0 5.0 0.00 0.00 0.00 62 1013.5
20260509073006 53 224 2.0 4.0 0.00 0.00 0.00 62 1013.6
20260509071504 53 211 2.0 5.0 0.00 0.00 0.00 62 1013.6
20260509070005 52 211 1.0 4.0 0.00 0.00 0.00 63 1013.6
20260509064504 53 213 0.0 2.0 0.00 0.00 0.00 64 1013.7
20260509063003 53 215 1.0 4.0 0.00 0.00 0.00 64 1013.9
20260509061505 52 213 1.0 3.0 0.00 0.00 0.00 68 1014.1
20260509060007 51 214 1.0 3.0 0.00 0.00 0.00 69 1014.1
20260509054504 51 218 0.0 2.0 0.00 0.00 0.00 69 1014.2
20260509053011 51 211 2.0 3.0 0.00 0.00 0.00 68 1014.2
20260509051507 52 231 0.0 2.0 0.00 0.00 0.00 67 1013.9
20260509050012 52 231 0.0 2.0 0.00 0.00 0.00 65 1013.8
20260509044513 53 246 0.0 2.0 0.00 0.00 0.00 65 1014.0
20260509043022 54 333 0.0 2.0 0.00 0.00 0.00 61 1013.9
20260509041510 55 38 0.0 2.0 0.00 0.00 0.00 58 1013.9
20260509040010 57 38 0.0 0.0 0.00 0.00 0.00 57 1013.7
20260509034513 58 38 0.0 1.0 0.00 0.00 0.00 52 1013.6
20260509033010 58 38 0.0 1.0 0.00 0.00 0.00 53 1013.6
20260509031513 59 38 0.0 0.0 0.00 0.00 0.00 53 1013.5
20260509030011 61 38 0.0 0.0 0.00 0.00 0.00 48 1013.3
20260509024508 62 38 0.0 1.0 0.00 0.00 0.00 47 1013.1
20260509023017 63 26 0.0 2.0 0.00 0.00 0.00 45 1012.8
20260509021510 64 46 0.0 0.0 0.00 0.00 0.00 44 1012.8
20260509020006 66 46 0.0 2.0 0.00 0.00 0.00 41 1012.8
20260509014506 68 22 0.0 0.0 0.00 0.00 0.00 38 1012.7
20260509013035 70 11 0.0 2.0 0.00 0.00 0.00 36 1012.9
20260509011520 71 24 0.0 3.0 0.00 0.00 0.00 34 1012.7
20260509010003 72 11 1.0 4.0 0.00 0.00 0.00 32 1012.6
20260509004517 73 10 4.0 10.0 0.00 0.00 0.00 31 1012.6
20260509003010 74 32 2.0 8.0 0.00 0.00 0.00 32 1012.5
20260509001519 74 14 5.0 9.0 0.00 0.00 0.00 31 1012.4
20260509000016 75 336 3.0 8.0 0.00 0.00 0.00 30 1012.4
20260508234505 75 28 7.0 12.0 0.00 0.00 0.00 29 1012.5
20260508233008 76 17 3.0 6.0 0.00 0.00 0.00 29 1012.4
20260508231518 76 24 7.0 13.0 0.00 0.00 0.00 29 1012.2
20260508230035 77 23 4.0 10.0 0.00 0.00 0.00 29 1012.2
20260508224522 77 22 3.0 10.0 0.00 0.00 0.00 30 1012.3
20260508223011 76 352 5.0 10.0 0.00 0.00 0.00 30 1012.3
20260508221514 76 18 5.0 10.0 0.00 0.00 0.00 30 1012.5
20260508220019 75 344 6.0 11.0 0.00 0.00 0.00 32 1012.6
20260508214526 75 347 6.0 11.0 0.00 0.00 0.00 33 1012.5
20260508213024 76 17 5.0 12.0 0.00 0.00 0.00 32 1012.7
20260508211516 76 22 7.0 14.0 0.00 0.00 0.00 32 1012.7
20260508210029 77 348 8.0 16.0 0.00 0.00 0.00 32 1012.8
20260508204522 77 315 8.0 15.0 0.00 0.00 0.00 32 1013.0
20260508203025 76 17 6.0 15.0 0.00 0.00 0.00 32 1013.0
20260508201510 76 352 8.0 15.0 0.00 0.00 0.00 33 1013.0
20260508200017 76 352 9.0 14.0 0.00 0.00 0.00 34 1013.1
20260508194521 76 325 9.0 17.0 0.00 0.00 0.00 34 1013.1
20260508193023 75 350 7.0 16.0 0.00 0.00 0.00 36 1013.3
20260508191527 75 342 7.0 16.0 0.00 0.00 0.00 36 1013.1
20260508190012 75 352 7.0 13.0 0.00 0.00 0.00 35 1013.2
20260508184535 74 17 9.0 20.0 0.00 0.00 0.00 35 1013.3
20260508183028 73 19 8.0 15.0 0.00 0.00 0.00 36 1013.4
20260508181542 73 352 8.0 16.0 0.00 0.00 0.00 37 1013.5
20260508180026 72 328 8.0 18.0 0.00 0.00 0.00 40 1013.4
20260508174506 73 306 10.0 15.0 0.00 0.00 0.00 40 1013.6
20260508173003 72 352 11.0 16.0 0.00 0.00 0.00 41 1013.7
20260508171505 71 360 9.0 18.0 0.00 0.00 0.00 42 1013.7
20260508170015 71 352 9.0 17.0 0.00 0.00 0.00 44 1013.8
20260508164516 71 342 7.0 17.0 0.00 0.00 0.00 44 1013.8
20260508163003 70 316 6.0 15.0 0.00 0.00 0.00 47 1013.9
20260508161505 69 329 9.0 16.0 0.00 0.00 0.00 48 1013.9
20260508160013 68 44 8.0 16.0 0.00 0.00 0.00 50 1013.9
20260508154514 67 9 10.0 16.0 0.00 0.00 0.00 52 1013.8
20260508153004 67 18 7.0 15.0 0.00 0.00 0.00 54 1013.8
20260508151510 66 346 7.0 15.0 0.00 0.00 0.00 53 1013.6
20260508150011 66 340 5.0 15.0 0.00 0.00 0.00 54 1013.7
20260508144529 65 310 7.0 15.0 0.00 0.00 0.00 55 1013.6
20260508143018 64 336 6.0 11.0 0.00 0.00 0.00 60 1013.6
20260508141504 62 360 6.0 11.0 0.00 0.00 0.00 61 1013.4
20260508140010 60 9 5.0 9.0 0.00 0.00 0.00 65 1013.3
20260508134514 57 326 2.0 4.0 0.00 0.00 0.00 68 1013.3
20260508133023 56 333 1.0 5.0 0.00 0.00 0.00 69 1013.2
20260508131521 54 336 3.0 8.0 0.00 0.00 0.00 77 1013.0
20260508130004 49 352 2.0 3.0 0.00 0.00 0.00 84 1012.4
20260508124507 47 285 0.0 0.0 0.00 0.00 0.00 83 1012.1
20260508123014 46 285 0.0 1.0 0.00 0.00 0.00 82 1011.7
20260508121520 46 285 0.0 0.0 0.00 0.00 0.00 80 1011.6
20260508120026 46 285 0.0 0.0 0.00 0.00 0.00 79 1011.5
20260508114510 47 285 0.0 2.0 0.00 0.00 0.00 77 1012.0
20260508113012 48 285 0.0 2.0 0.00 0.00 0.00 76 1011.6
20260508111519 49 285 0.0 0.0 0.00 0.00 0.00 73 1011.8
20260508110042 49 285 0.0 2.0 0.00 0.00 0.00 73 1011.6
20260508104524 47 285 0.0 2.0 0.00 0.00 0.00 76 1011.3
20260508103011 47 285 0.0 2.0 0.00 0.00 0.00 76 1011.8
20260508101518 47 285 0.0 2.0 0.00 0.00 0.00 75 1011.9
20260508100022 47 188 0.0 3.0 0.00 0.00 0.00 74 1011.8
20260508094523 47 243 0.0 0.0 0.00 0.00 0.00 74 1011.7
20260508093034 48 243 0.0 1.0 0.00 0.00 0.00 71 1011.5
20260508091514 49 336 0.0 6.0 0.00 0.00 0.00 70 1011.8
20260508090025 46 336 3.0 9.0 0.00 0.00 0.00 75 1012.1
20260508084504 45 246 0.0 2.0 0.00 0.00 0.00 73 1011.3
20260508083008 46 246 0.0 2.0 0.00 0.00 0.00 72 1011.1
20260508081510 46 246 0.0 3.0 0.00 0.01 0.00 73 1011.2
20260508080015 46 336 0.0 0.0 0.00 0.01 0.00 72 1011.2